[[{"header":{"parameterUnit":"m.s-1","parameterCategory":1,"la1":30.2991,"la2":30.254,"lo1":-89.0895,"lo2":-89.0444,"dy":0.0017,"dx":0.0017,"nx":28,"ny":28,"refTime":"2024-05-07T21:00:00:Z","depth":0,"parameterNumber":2,"parameterNumberName":"U-component_of_WINDS"},"data":[0,0,0,0,0,0,0,0,0,0,0,0,0,0,0,0,0,0,0,0,0,0,0,0,0,0,0,0,0,0,0,0,0,0,0,0,0,0,0,0,0,0,0,0,0,0,0,0,0,0,0,0,0,0,0,0,0,0,-0.1198,-0.1197,0,-0.1158,-0.1157,-0.1157,-0.113,-0.113,-0.113,-0.113,-0.109,-0.1089,-0.1088,0,0,0,0,0,0,0,0,0,0,0,0,0,-0.1255,-0.1254,-0.1198,-0.1197,-0.1197,-0.1158,-0.1157,-0.1157,-0.113,-0.113,-0.113,-0.113,-0.109,-0.1089,-0.1088,0,0,0,0,0,0,0,0,0,0,0,0,0,-0.1224,-0.1253,-0.1198,-0.1179,-0.1177,-0.1158,-0.1157,-0.1156,-0.1131,-0.113,-0.113,-0.113,-0.1091,-0.1089,-0.1088,-0.1085,0,0,-0.1084,-0.1083,0,0,0,0,0,0,0,0,-0.1226,-0.1222,-0.1182,-0.118,-0.1178,-0.1149,-0.1162,-0.1132,-0.1131,-0.1148,-0.113,-0.113,-0.111,-0.1107,-0.11,-0.1083,-0.1081,-0.1084,-0.1083,-0.1082,-0.1082,0,0,0,0,0,0,0,-0.1228,-0.1223,-0.1182,-0.1182,-0.1179,-0.1173,-0.1169,-0.1157,-0.1131,-0.1147,-0.1145,-0.114,-0.1109,-0.1101,-0.1099,-0.1081,-0.1084,-0.1083,-0.1082,-0.1081,-0.1061,-0.1061,0,0,0,0,0,0,-0.1233,-0.1225,-0.1183,-0.1181,-0.1202,-0.1173,-0.1167,-0.1158,-0.1131,-0.1127,-0.114,-0.1139,-0.1104,-0.11,-0.1097,-0.1093,-0.1082,-0.1081,-0.108,-0.106,-0.1061,-0.1061,0,0,0,0,0,0,-0.1234,-0.1229,-0.1185,-0.1202,-0.1196,-0.1172,-0.1162,-0.1158,-0.115,-0.1126,-0.1122,-0.1138,-0.1103,-0.1099,-0.1088,-0.1091,-0.108,-0.1079,-0.106,-0.1061,-0.1061,-0.1083,0,0,0,0,0,0,-0.1236,-0.123,-0.1227,-0.1203,-0.1196,-0.1176,-0.1162,-0.1157,-0.1148,-0.1146,-0.1122,-0.1118,-0.1103,-0.1091,-0.1087,-0.1089,-0.1078,-0.106,-0.106,-0.1061,-0.1082,-0.1084,-0.1086,0,0,0,0,0,-0.1238,-0.1235,-0.1227,-0.1222,-0.1192,-0.1176,-0.1172,-0.1154,-0.1148,-0.1146,-0.1131,-0.1119,-0.1091,-0.109,-0.1085,-0.1087,-0.106,-0.106,-0.1061,-0.1081,-0.1083,-0.1086,0,0,0,0,0,0,-0.1261,-0.1231,-0.1223,-0.1212,-0.1197,-0.1172,-0.1168,-0.1157,-0.1143,-0.1142,-0.1121,-0.1116,-0.1107,-0.1096,-0.1095,-0.1083,-0.1074,-0.1074,-0.1091,-0.1093,-0.1095,-0.1098,-0.1077,0,0,0,0,0,-0.1265,-0.1253,-0.1229,-0.1221,-0.1214,-0.1193,-0.1185,-0.1173,-0.1156,-0.115,-0.1134,-0.1119,-0.1107,-0.1099,-0.1087,-0.108,-0.1075,-0.1079,-0.1081,-0.1083,-0.1083,-0.108,-0.1082,-0.1063,-0.1063,-0.1063,0,0,-0.1272,-0.1255,-0.1249,-0.1226,-0.1212,-0.1202,-0.1188,-0.1177,-0.1169,-0.1148,-0.1137,-0.1125,-0.1107,-0.1099,-0.1094,-0.1089,-0.1087,-0.1084,-0.1085,-0.1084,-0.1081,-0.1083,-0.1084,-0.1063,-0.1063,-0.1063,0,0,-0.1281,-0.1267,-0.126,-0.1247,-0.1227,-0.1213,-0.1212,-0.1189,-0.118,-0.1169,-0.1153,-0.1144,-0.1124,-0.1112,-0.1103,-0.111,-0.1099,-0.1107,-0.1117,-0.1114,-0.1116,-0.1117,-0.112,-0.1122,-0.1107,-0.1107,-0.1107,0,-0.1293,-0.1276,-0.1257,-0.1248,-0.1239,-0.122,-0.1213,-0.1202,-0.118,-0.1174,-0.1169,-0.1143,-0.113,-0.1119,-0.1121,-0.1114,-0.1113,-0.1109,-0.1117,-0.1118,-0.1119,-0.1122,-0.1123,-0.1108,-0.1108,-0.1108,-0.1108,0,-0.1293,-0.1282,-0.1279,-0.1258,-0.1248,-0.124,-0.1221,-0.1214,-0.1203,-0.119,-0.118,-0.1163,-0.1147,-0.1144,-0.1133,-0.1132,-0.113,-0.1121,-0.1111,-0.1122,-0.1125,-0.1126,-0.111,-0.1109,-0.1109,-0.1109,0,0,-0.1314,-0.1284,-0.1283,-0.1274,-0.1252,-0.1243,-0.1235,-0.122,-0.1215,-0.12,-0.1194,-0.1178,-0.117,-0.116,-0.1148,-0.1146,-0.1154,-0.1138,-0.1137,-0.1142,-0.1153,-0.116,-0.1162,-0.1146,-0.1146,-0.1146,-0.1155,0,-0.132,-0.1304,-0.1287,-0.1278,-0.1268,-0.1251,-0.1244,-0.123,-0.1218,-0.1209,-0.1196,-0.1186,-0.1176,-0.117,-0.1167,-0.1153,-0.1156,-0.1152,-0.1141,-0.1141,-0.1146,-0.1163,-0.1169,-0.1178,-0.1156,-0.1156,-0.1156,0,-0.1324,-0.1311,-0.13,-0.128,-0.1276,-0.127,-0.1256,-0.1247,-0.1232,-0.1223,-0.1213,-0.1201,-0.1193,-0.1185,-0.1174,-0.1172,-0.1167,-0.116,-0.116,-0.1158,-0.1149,-0.1162,-0.118,-0.1182,-0.1157,-0.1157,-0.1157,0,-0.1341,-0.1321,-0.1312,-0.1305,-0.1281,-0.1278,-0.1268,-0.1253,-0.1245,-0.1233,-0.1228,-0.1216,-0.1209,-0.12,-0.1184,-0.118,-0.1176,-0.1166,-0.117,-0.117,-0.1169,-0.117,-0.1188,-0.1165,-0.1165,-0.1165,-0.1165,0,-0.1349,-0.1344,-0.132,-0.1315,-0.1308,-0.129,-0.1285,-0.1274,-0.1261,-0.1254,-0.1238,-0.1232,-0.1212,-0.1204,-0.1192,-0.1186,-0.1183,-0.1177,-0.1174,-0.1178,-0.1179,-0.1174,-0.1173,-0.1166,-0.1166,-0.1166,-0.1165,0,-0.1367,-0.1351,-0.134,-0.132,-0.1314,-0.1311,-0.1293,-0.1288,-0.1276,-0.1268,-0.1265,-0.1246,-0.1236,-0.122,-0.1205,-0.1197,-0.1194,-0.1188,-0.1199,-0.1197,-0.1202,-0.1202,-0.1217,-0.1219,-0.1195,-0.1196,-0.1196,0,-0.1373,-0.1369,-0.1348,-0.1342,-0.1333,-0.1324,-0.1316,-0.1299,-0.1292,-0.1276,-0.1273,-0.1262,-0.1252,-0.1237,-0.1222,-0.1211,-0.1206,-0.1212,-0.1204,-0.1209,-0.1207,-0.1208,-0.1208,-0.1214,-0.1215,-0.1215,-0.1215,0,-0.1387,-0.1379,-0.1369,-0.1356,-0.1348,-0.1337,-0.1326,-0.1322,-0.1303,-0.1296,-0.1286,-0.1278,-0.1264,-0.1253,-0.124,-0.1231,-0.122,-0.1218,-0.1218,-0.1223,-0.1229,-0.1227,-0.1204,-0.1217,-0.1217,-0.1217,-0.1217,-0.1217,-0.1399,-0.1395,-0.138,-0.137,-0.1359,-0.135,-0.1344,-0.1332,-0.1323,-0.131,-0.13,-0.1291,-0.1278,-0.126,-0.1251,-0.1244,-0.1239,-0.124,-0.124,-0.124,-0.1242,-0.1231,-0.1242,-0.1242,-0.1242,-0.1242,-0.1242,0,-0.1412,-0.1402,-0.1393,-0.1378,-0.137,-0.1361,-0.1348,-0.1342,-0.1334,-0.1323,-0.1314,-0.1303,-0.1293,-0.1278,-0.1268,-0.1265,-0.126,-0.1263,-0.1263,-0.1261,-0.1247,-0.1248,-0.1267,-0.1267,-0.1267,-0.1267,-0.1267,-0.1267,-0.1418,-0.1411,-0.1402,-0.139,-0.138,-0.1371,-0.1365,-0.1356,-0.1347,-0.1335,-0.1327,-0.1318,-0.1306,-0.1294,-0.1285,-0.1282,-0.1279,-0.1283,-0.1278,-0.1265,-0.1262,-0.126,-0.1261,-0.1283,-0.1283,-0.1293,-0.1293,-0.1293]},{"header":{"parameterUnit":"m.s-1","parameterCategory":1,"la1":30.2991,"la2":30.254,"lo1":-89.0895,"lo2":-89.0444,"dy":0.0017,"dx":0.0017,"nx":28,"ny":28,"refTime":"2024-05-07T21:00:00:Z","depth":0,"parameterNumber":3,"parameterNumberName":"V-component_of_WINDS"},"data":[0,0,0,0,0,0,0,0,0,0,0,0,0,0,0,0,0,0,0,0,0,0,0,0,0,0,0,0,0,0,0,0,0,0,0,0,0,0,0,0,0,0,0,0,0,0,0,0,0,0,0,0,0,0,0,0,0,0,5.1625,5.1624,0,5.1551,5.155,5.1549,5.1533,5.1534,5.1535,5.1535,5.1452,5.1449,5.1447,0,0,0,0,0,0,0,0,0,0,0,0,0,5.1746,5.1744,5.1625,5.1624,5.1623,5.1551,5.155,5.1549,5.1533,5.1534,5.1535,5.1535,5.1453,5.145,5.1446,0,0,0,0,0,0,0,0,0,0,0,0,0,5.1685,5.1743,5.1625,5.1607,5.1604,5.1551,5.155,5.1549,5.1533,5.1534,5.1535,5.1536,5.1454,5.145,5.1446,5.1403,0,0,5.1433,5.1431,0,0,0,0,0,0,0,0,5.1688,5.168,5.161,5.1608,5.1605,5.1553,5.1562,5.15,5.1533,5.156,5.1535,5.1536,5.1484,5.1478,5.1462,5.1399,5.1396,5.1433,5.143,5.1429,5.1427,0,0,0,0,0,0,0,5.1693,5.1683,5.1595,5.1609,5.1606,5.16,5.1592,5.155,5.1518,5.1558,5.1556,5.1548,5.1483,5.1466,5.146,5.1395,5.1433,5.1429,5.1427,5.1425,5.1295,5.1294,0,0,0,0,0,0,5.1701,5.1687,5.1598,5.1593,5.165,5.1597,5.1589,5.1568,5.1518,5.1512,5.1548,5.1548,5.1472,5.1464,5.1457,5.1404,5.1429,5.1425,5.1422,5.1296,5.1295,5.1294,0,0,0,0,0,0,5.1704,5.1693,5.1601,5.164,5.1628,5.1594,5.1572,5.1566,5.1549,5.1511,5.1504,5.1536,5.1473,5.1462,5.1418,5.1401,5.1423,5.1419,5.1297,5.1296,5.1294,5.1298,0,0,0,0,0,0,5.1707,5.1694,5.1679,5.164,5.1626,5.1564,5.1571,5.1564,5.1543,5.1543,5.1499,5.1492,5.1473,5.1424,5.1413,5.1396,5.1416,5.1298,5.1296,5.1295,5.13,5.1297,5.1295,0,0,0,0,0,5.1712,5.1681,5.1678,5.1668,5.1606,5.1564,5.1555,5.1536,5.1542,5.1525,5.1501,5.1493,5.1405,5.1419,5.1407,5.1388,5.1299,5.1297,5.1295,5.1301,5.1298,5.1295,0,0,0,0,0,0,5.1716,5.1676,5.1672,5.1628,5.16,5.1561,5.1539,5.1533,5.15,5.1501,5.1475,5.1466,5.1422,5.1401,5.1418,5.1345,5.1352,5.1347,5.1361,5.1358,5.1356,5.1361,5.1413,0,0,0,0,0,5.1713,5.1684,5.1649,5.1613,5.16,5.1573,5.1553,5.1541,5.1509,5.1496,5.1468,5.1436,5.1401,5.1378,5.1344,5.1297,5.1287,5.1278,5.1276,5.1275,5.127,5.1244,5.124,5.1286,5.1286,5.1286,0,0,5.1703,5.1678,5.166,5.1614,5.159,5.1559,5.1562,5.1528,5.1505,5.149,5.1447,5.1426,5.1388,5.1343,5.1321,5.1323,5.1256,5.1272,5.1271,5.1267,5.1242,5.1237,5.1233,5.1285,5.1285,5.1285,0,0,5.1671,5.165,5.1618,5.1596,5.1562,5.1544,5.1537,5.15,5.1486,5.1443,5.1432,5.1402,5.1342,5.1317,5.1295,5.1257,5.1248,5.1246,5.1234,5.1209,5.1206,5.1202,5.1188,5.1183,5.1242,5.1242,5.1242,0,5.1664,5.1619,5.1602,5.157,5.155,5.1539,5.1507,5.1485,5.144,5.1425,5.1429,5.1356,5.1329,5.1278,5.1269,5.1252,5.1242,5.125,5.1208,5.1204,5.1201,5.1187,5.1182,5.1242,5.1242,5.1242,5.1242,0,5.1611,5.158,5.1558,5.1519,5.1496,5.1464,5.1441,5.142,5.1411,5.1392,5.1349,5.1317,5.1277,5.1264,5.1253,5.1211,5.1214,5.1214,5.122,5.1197,5.1183,5.1178,5.1242,5.1242,5.1242,5.1242,0,0,5.1577,5.1532,5.1524,5.1507,5.1469,5.1444,5.1411,5.1375,5.1357,5.1327,5.1298,5.1249,5.1249,5.1225,5.1212,5.119,5.1162,5.1192,5.1191,5.1187,5.1114,5.1114,5.1108,5.1157,5.1156,5.1155,5.1117,0,5.154,5.1484,5.1469,5.142,5.1391,5.1382,5.1354,5.1327,5.1309,5.1281,5.126,5.1226,5.1229,5.1215,5.1193,5.117,5.1146,5.1172,5.1128,5.1126,5.1137,5.1101,5.11,5.1065,5.1111,5.111,5.111,0,5.1488,5.1461,5.1411,5.1379,5.1366,5.1341,5.1307,5.1281,5.125,5.1239,5.1214,5.1203,5.1167,5.1177,5.1127,5.1145,5.1126,5.1112,5.1111,5.1104,5.1116,5.1093,5.1054,5.1048,5.1101,5.1102,5.1103,0,5.1468,5.1419,5.1382,5.1368,5.133,5.1313,5.1296,5.1266,5.1246,5.1216,5.1202,5.1167,5.1148,5.1121,5.11,5.111,5.1052,5.106,5.104,5.104,5.1026,5.1027,5.0983,5.1016,5.1017,5.1017,5.1017,0,5.1428,5.1397,5.1373,5.1351,5.1316,5.1299,5.1265,5.1247,5.1221,5.1194,5.1183,5.1157,5.1133,5.1103,5.1087,5.1048,5.1039,5.1028,5.1023,5.1028,5.1029,5.1014,5.1015,5.1015,5.1016,5.1016,5.1016,0,5.1398,5.1382,5.1341,5.1311,5.1302,5.1278,5.125,5.1227,5.1211,5.1176,5.1167,5.114,5.1105,5.1083,5.1037,5.1026,5.0983,5.098,5.0995,5.0992,5.0974,5.0975,5.0917,5.0908,5.0948,5.0948,5.0948,0,5.1373,5.135,5.1318,5.13,5.1284,5.1255,5.1236,5.1219,5.1198,5.1163,5.1144,5.1109,5.108,5.1025,5.1,5.0965,5.096,5.0943,5.0955,5.0961,5.0959,5.0961,5.0958,5.094,5.0939,5.0939,5.0939,0,5.133,5.1324,5.1297,5.1268,5.1245,5.1221,5.1196,5.1181,5.116,5.1137,5.1103,5.1081,5.1037,5.1002,5.0966,5.0946,5.0938,5.0936,5.0929,5.0933,5.0942,5.0936,5.0988,5.0937,5.0937,5.0937,5.0937,5.0937,5.1301,5.1281,5.1256,5.1226,5.1207,5.1185,5.1162,5.1145,5.1117,5.1081,5.1072,5.1036,5.1007,5.0958,5.0938,5.0909,5.0911,5.0902,5.0899,5.0897,5.0896,5.0948,5.0902,5.0902,5.0902,5.0902,5.0902,0,5.1257,5.1242,5.1215,5.1183,5.116,5.1159,5.1131,5.1112,5.1081,5.1056,5.1029,5.099,5.0957,5.0931,5.0896,5.0878,5.0873,5.0869,5.0869,5.0865,5.0896,5.0905,5.0873,5.0873,5.0873,5.0873,5.0873,5.0873,5.1231,5.1197,5.1188,5.1143,5.1127,5.1094,5.1079,5.1058,5.1038,5.0996,5.0969,5.0954,5.0928,5.0892,5.0861,5.0854,5.0841,5.0838,5.083,5.0859,5.0863,5.0866,5.0874,5.0835,5.0835,5.0801,5.08,5.08]}]]